STARLINK-11551, 62840

Orbit data source: Space-Track

STARLINK-11551, 62840 is a payload satellite owned by SpaceX/Seattle (US) in LEO that was launched on Mon, 27 Jan 2025 UTC via an FALCON 9 launch vehicle from the Air Force Eastern Test Range (AFETR). Payload-class satellites include a variety of spacecraft equipped with specific instruments for various scientific and technological missions. These include communications satellites like Starlink; space stations such as the ISS; scientific satellites like the Hubble; Earth observation satellites from companies like Planet Labs, Umbra, and HawkEye 360; GPS; miniature CubeSats for education and research; and military/defense satellites.

Loading next visibility...
Identifier
62840, 2025-019M
Orbit
LEO
Country
Flag of USUS
Related business
Manufacturer
SpaceX/Seattle
Mission
Operational Commercial Communications
Bus & Motor
STARLINK V2MD, Unknown motor
Mass
960 kg wet, ~910 kg dry
Launch date (UTC)
2025-01-27 (9 months ago)
Launch vehicle
FALCON 9
Launch site
Air Force Eastern Test Range (AFETR)
Object type
Payload
Rocket body
Debris
Shape & HBR
Box + 2 Pan, 18.1 m
Radar Cross Section
36.964 m², Large (>1 m²)

Expand to show TLE details & history
Last TLE update: 1 day ago

TLE from 1 day ago
0 STARLINK-11551
1 62840U 25019M   25305.51969654  .00111422  00000-0  85961-3 0  9990
2 62840  43.0002 358.4834 0001694 286.3510  73.7171 15.70857175 43729
Epoch: 2025-11-01T12:28Z
TLE epoch observation values (Epoch: 2025-11-01T12:28:21.781Z)
Latitude
-0.00002°
Longitude
130.34402°
Altitude
355.898 km
Speed
7.698 km/s
True Right ascension
23h 53m 56s
True Declination
0° 00' 00"
Sunlit
Object was in full shadow at epoch
Visualization orbit readout
Latitude
Unknown
Longitude
Unknown
Altitude
Unknown
Speed
Unknown
Apparent Right ascension
Unknown
Apparent Declination
Unknown
Sunlit
N/A
Visualization observer readout
Local Sidereal Time
12:26:58
Azimuth
Unknown
Elevation
Unknown
Doppler factor
Unknown
Orbital elements
Apogee altitude
359.569 km
Perigee altitude
357.286 km
Semi-major axis
6,736.565 km
Eccentricity
0.00017
Inclination
43.0002°
RAAN
358.4834°
Arg. of periapsis
286.351°
True anomaly
73.73573°
Mean anomaly
73.7171°
Eccentric anomaly
73.72642°
Mean motion
3.92541 °/min
Orbital period
91.71 mins
BSTAR
0.00085961
Loading maneuver chart data...
Computing Atmospheric mass density...
Loading historical data...
Loading historical data...
Loading historical data...
Loading historical data...
Loading historical data...
Loading historical data...
Loading historical data...

Documentation

Showing up to 5 results
|